Location: M?digepalle
(16.1753°N, 80.3496°E)
Time: 09:05:44
(UTC+00:00)

Cosmos 614 Rocket - Pass Details

Date: 29 October 2020
Orbit: 734 x 763 km, 74.1° (Epoch: 27 November)

Event Time Altitude Azimuth Distance (km) Brightness Sun altitude
Rises 23:03:36 0° 199° (SSW) 3,202 7.1 -22.4°
Reaches altitude 10° 23:05:59 10° 202° (SSW) 2,274 6.3 -21.8°
Maximum altitude 23:11:06 65° 283° (WNW) 823 3.8 -20.6°
Drops below altitude 10° 23:16:10 10° 6° (N) 2,259 6.4 -19.4°
Sets 23:18:33 0° 9° (N) 3,178 7.2 -18.8°
